Time,TemperatureF,DewpointF,PressureIn,WindDirection,WindDirectionDegrees,WindSpeedMPH,WindSpeedGustMPH,Humidity,HourlyPrecipIn,Conditions,Clouds,dailyrainin,SoftwareType,DateUTC
2013-11-17 00:00:00,40.1,13.3,29.91,South,187,0.0,0.0,33,0.00,,---,0.00,VWS V13.01,2013-11-17 05:00:00,
2013-11-17 00:01:00,40.1,13.3,29.91,South,187,0.0,0.0,33,0.00,,---,0.00,VWS V13.01,2013-11-17 05:01:00,
2013-11-17 00:02:00,40.1,13.3,29.91,South,188,0.0,0.0,33,0.00,,---,0.00,VWS V13.01,2013-11-17 05:02:00,
2013-11-17 00:03:00,40.1,13.3,29.91,South,187,0.0,0.0,33,0.00,,---,0.00,VWS V13.01,2013-11-17 05:03:00,
2013-11-17 00:08:00,40.1,13.3,29.91,South,187,0.0,0.0,33,0.00,,---,0.00,VWS V13.01,2013-11-17 05:08:00,
2013-11-17 00:13:00,40.1,13.3,29.91,South,187,0.0,0.0,33,0.00,,---,0.00,VWS V13.01,2013-11-17 05:13:00,
2013-11-17 00:19:00,40.1,13.3,29.91,South,187,0.0,0.0,33,0.00,,---,0.00,VWS V13.01,2013-11-17 05:19:00,
2013-11-17 00:24:00,40.1,13.3,29.91,South,187,0.0,0.0,33,0.00,,---,0.00,VWS V13.01,2013-11-17 05:24:00,
2013-11-17 00:29:00,40.1,13.3,29.91,South,187,0.0,0.0,33,0.00,,---,0.00,VWS V13.01,2013-11-17 05:29:00,
2013-11-17 00:34:00,40.1,13.3,29.91,South,187,0.0,0.0,33,0.00,,---,0.00,VWS V13.01,2013-11-17 05:34:00,
2013-11-17 00:39:00,40.1,13.3,29.91,South,187,0.0,0.0,33,0.00,,---,0.00,VWS V13.01,2013-11-17 05:39:00,
2013-11-17 00:44:00,40.1,13.3,29.91,South,187,0.0,0.0,33,0.00,,---,0.00,VWS V13.01,2013-11-17 05:44:00,
2013-11-17 00:49:00,40.1,13.3,29.91,South,187,0.0,0.0,33,0.00,,---,0.00,VWS V13.01,2013-11-17 05:49:00,
2013-11-17 00:54:00,40.1,13.3,29.91,South,187,0.0,0.0,33,0.00,,---,0.00,VWS V13.01,2013-11-17 05:54:00,
2013-11-17 00:59:00,40.1,13.3,29.91,South,187,0.0,0.0,33,0.00,,---,0.00,VWS V13.01,2013-11-17 05:59:00,
2013-11-17 01:05:00,40.1,13.3,29.91,South,187,0.0,0.0,33,0.00,,---,0.00,VWS V13.01,2013-11-17 06:05:00,
2013-11-17 01:10:00,38.8,14.2,29.91,South,187,0.0,0.0,36,0.00,,---,0.00,VWS V13.01,2013-11-17 06:10:00,
2013-11-17 01:15:00,38.8,14.2,29.91,South,187,0.0,0.0,36,0.00,,---,0.00,VWS V13.01,2013-11-17 06:15:00,
2013-11-17 01:20:00,38.8,14.2,29.91,South,187,0.0,0.0,36,0.00,,---,0.00,VWS V13.01,2013-11-17 06:20:00,
2013-11-17 01:25:00,38.8,14.2,29.91,South,187,0.0,0.0,36,0.00,,---,0.00,VWS V13.01,2013-11-17 06:25:00,
2013-11-17 01:30:00,38.8,14.8,29.91,South,187,0.0,0.0,37,0.00,,---,0.00,VWS V13.01,2013-11-17 06:30:00,
2013-11-17 01:35:00,37.4,12.9,29.91,South,187,0.0,0.0,36,0.00,,---,0.00,VWS V13.01,2013-11-17 06:35:00,
2013-11-17 01:40:00,38.8,14.8,29.91,South,187,0.0,0.0,37,0.00,,---,0.00,VWS V13.01,2013-11-17 06:40:00,
2013-11-17 01:46:00,38.8,14.8,29.91,South,187,0.0,0.0,37,0.00,,---,0.00,VWS V13.01,2013-11-17 06:46:00,
2013-11-17 01:51:00,39.0,15.0,29.91,South,187,0.0,0.0,37,0.00,,---,0.00,VWS V13.01,2013-11-17 06:51:00,
2013-11-17 01:56:00,39.0,15.0,29.91,South,187,0.0,0.0,37,0.00,,---,0.00,VWS V13.01,2013-11-17 06:56:00,
2013-11-17 02:01:00,39.0,15.0,29.91,South,187,0.0,0.0,37,0.00,,---,0.00,VWS V13.01,2013-11-17 07:01:00,
2013-11-17 02:06:00,39.0,15.0,29.91,South,187,0.0,0.0,37,0.00,,---,0.00,VWS V13.01,2013-11-17 07:06:00,
2013-11-17 02:11:00,39.0,15.0,29.91,South,187,0.0,0.0,37,0.00,,---,0.00,VWS V13.01,2013-11-17 07:11:00,
2013-11-17 02:16:00,39.0,15.0,29.91,South,187,0.0,0.0,37,0.00,,---,0.00,VWS V13.01,2013-11-17 07:16:00,
2013-11-17 02:22:00,39.0,15.0,29.91,South,187,0.0,0.0,37,0.00,,---,0.00,VWS V13.01,2013-11-17 07:22:00,
2013-11-17 02:27:00,39.0,15.0,29.91,South,187,0.0,0.0,37,0.00,,---,0.00,VWS V13.01,2013-11-17 07:27:00,
2013-11-17 02:32:00,39.0,15.0,29.91,South,187,0.0,0.0,37,0.00,,---,0.00,VWS V13.01,2013-11-17 07:32:00,
2013-11-17 02:37:00,39.0,15.0,29.91,South,187,0.0,0.0,37,0.00,,---,0.00,VWS V13.01,2013-11-17 07:37:00,
2013-11-17 02:42:00,39.0,15.0,29.91,South,187,0.0,0.0,37,0.00,,---,0.00,VWS V13.01,2013-11-17 07:42:00,
2013-11-17 02:47:00,41.0,17.4,29.91,South,187,0.0,0.0,38,0.00,,---,0.00,VWS V13.01,2013-11-17 07:47:00,
2013-11-17 02:52:00,41.0,17.4,29.91,South,187,0.0,0.0,38,0.00,,---,0.00,VWS V13.01,2013-11-17 07:52:00,
2013-11-17 02:57:00,41.2,17.5,29.91,South,187,0.0,0.0,38,0.00,,---,0.00,VWS V13.01,2013-11-17 07:57:00,
2013-11-17 03:03:00,41.2,17.5,29.88,South,187,0.0,0.0,38,0.00,,---,0.00,VWS V13.01,2013-11-17 08:03:00,
2013-11-17 03:08:00,41.4,17.7,29.88,South,187,0.0,0.0,38,0.00,,---,0.00,VWS V13.01,2013-11-17 08:08:00,
2013-11-17 03:13:00,41.4,17.7,29.88,South,187,0.0,0.0,38,0.00,,---,0.00,VWS V13.01,2013-11-17 08:13:00,
2013-11-17 03:18:00,41.5,17.8,29.91,South,187,0.0,0.0,38,0.00,,---,0.00,VWS V13.01,2013-11-17 08:18:00,
2013-11-17 03:23:00,41.7,18.0,29.91,South,187,0.0,0.0,38,0.00,,---,0.00,VWS V13.01,2013-11-17 08:23:00,
2013-11-17 03:28:00,41.9,18.2,29.91,South,187,0.0,0.0,38,0.00,,---,0.00,VWS V13.01,2013-11-17 08:28:00,
2013-11-17 03:33:00,41.9,18.2,29.91,South,187,0.0,0.0,38,0.00,,---,0.00,VWS V13.01,2013-11-17 08:33:00,
2013-11-17 03:39:00,41.9,18.2,29.91,South,187,0.0,0.0,38,0.00,,---,0.00,VWS V13.01,2013-11-17 08:39:00,
2013-11-17 03:44:00,42.1,18.3,29.91,South,187,0.0,0.0,38,0.00,,---,0.00,VWS V13.01,2013-11-17 08:44:00,
2013-11-17 03:49:00,42.1,18.3,29.91,South,187,0.0,0.0,38,0.00,,---,0.00,VWS V13.01,2013-11-17 08:49:00,
2013-11-17 03:54:00,42.3,18.5,29.91,South,187,0.0,0.0,38,0.00,,---,0.00,VWS V13.01,2013-11-17 08:54:00,
2013-11-17 03:59:00,42.3,18.5,29.91,South,187,0.0,0.0,38,0.00,,---,0.00,VWS V13.01,2013-11-17 08:59:00,
2013-11-17 04:04:00,42.3,18.5,29.88,South,187,0.0,0.0,38,0.00,,---,0.00,VWS V13.01,2013-11-17 09:04:00,
2013-11-17 04:09:00,42.3,18.5,29.88,South,187,0.0,0.0,38,0.00,,---,0.00,VWS V13.01,2013-11-17 09:09:00,
2013-11-17 04:14:00,42.4,18.6,29.88,South,187,0.0,0.0,38,0.00,,---,0.00,VWS V13.01,2013-11-17 09:14:00,
2013-11-17 04:19:00,42.8,19.0,29.88,South,187,0.0,0.0,38,0.00,,---,0.00,VWS V13.01,2013-11-17 09:19:00,
2013-11-17 04:25:00,43.0,19.1,29.88,South,187,0.0,0.0,38,0.00,,---,0.00,VWS V13.01,2013-11-17 09:25:00,
2013-11-17 04:30:00,43.2,19.3,29.88,South,187,0.0,0.0,38,0.00,,---,0.00,VWS V13.01,2013-11-17 09:30:00,
2013-11-17 04:35:00,43.3,19.5,29.88,South,187,0.0,0.0,38,0.00,,---,0.00,VWS V13.01,2013-11-17 09:35:00,
2013-11-17 04:40:00,43.3,19.5,29.88,South,187,0.0,0.0,38,0.00,,---,0.00,VWS V13.01,2013-11-17 09:40:00,
2013-11-17 04:45:00,43.3,19.5,29.88,South,187,0.0,0.0,38,0.00,,---,0.00,VWS V13.01,2013-11-17 09:45:00,
2013-11-17 04:50:00,43.3,19.5,29.88,South,187,0.0,0.0,38,0.00,,---,0.00,VWS V13.01,2013-11-17 09:50:00,
2013-11-17 04:55:00,43.5,19.6,29.88,South,187,0.0,0.0,38,0.00,,---,0.00,VWS V13.01,2013-11-17 09:55:00,
2013-11-17 05:00:00,43.7,19.8,29.88,South,187,0.0,0.0,38,0.00,,---,0.00,VWS V13.01,2013-11-17 10:00:00,
2013-11-17 05:05:00,43.7,19.8,29.88,South,187,0.0,0.0,38,0.00,,---,0.00,VWS V13.01,2013-11-17 10:05:00,
2013-11-17 05:10:00,43.7,19.8,29.88,South,187,0.0,0.0,38,0.00,,---,0.00,VWS V13.01,2013-11-17 10:10:00,
2013-11-17 05:15:00,43.7,19.8,29.88,South,187,0.0,0.0,38,0.00,,---,0.00,VWS V13.01,2013-11-17 10:15:00,
2013-11-17 05:21:00,43.7,19.8,29.88,South,187,0.0,0.0,38,0.00,,---,0.00,VWS V13.01,2013-11-17 10:21:00,
2013-11-17 05:26:00,43.7,19.8,29.88,South,187,0.0,0.0,38,0.00,,---,0.00,VWS V13.01,2013-11-17 10:26:00,
2013-11-17 05:31:00,44.1,20.1,29.91,South,187,0.0,0.0,38,0.00,,---,0.00,VWS V13.01,2013-11-17 10:31:00,
2013-11-17 05:36:00,44.2,20.3,29.91,South,187,0.0,0.0,38,0.00,,---,0.00,VWS V13.01,2013-11-17 10:36:00,
2013-11-17 05:41:00,44.1,20.1,29.91,South,187,0.0,0.0,38,0.00,,---,0.00,VWS V13.01,2013-11-17 10:41:00,
2013-11-17 05:46:00,44.1,20.1,29.88,South,187,0.0,0.0,38,0.00,,---,0.00,VWS V13.01,2013-11-17 10:46:00,
2013-11-17 05:51:00,44.1,20.1,29.88,South,187,0.0,0.0,38,0.00,,---,0.00,VWS V13.01,2013-11-17 10:51:00,
2013-11-17 05:56:00,44.2,20.3,29.88,South,187,0.0,0.0,38,0.00,,---,0.00,VWS V13.01,2013-11-17 10:56:00,
2013-11-17 06:01:00,44.4,20.4,29.88,South,187,0.0,0.0,38,0.00,,---,0.00,VWS V13.01,2013-11-17 11:01:00,
2013-11-17 06:06:00,44.6,20.6,29.88,South,187,0.0,0.0,38,0.00,,---,0.00,VWS V13.01,2013-11-17 11:06:00,
2013-11-17 06:11:00,44.8,20.7,29.88,South,187,0.0,0.0,38,0.00,,---,0.00,VWS V13.01,2013-11-17 11:11:00,
2013-11-17 06:16:00,44.8,20.1,29.88,South,187,0.0,0.0,37,0.00,,---,0.00,VWS V13.01,2013-11-17 11:16:00,
2013-11-17 06:21:00,44.8,20.1,29.88,South,187,0.0,0.0,37,0.00,,---,0.00,VWS V13.01,2013-11-17 11:21:00,
2013-11-17 06:27:00,45.0,20.3,29.88,South,187,0.0,0.0,37,0.00,,---,0.00,VWS V13.01,2013-11-17 11:27:00,
2013-11-17 06:32:00,45.3,21.2,29.88,South,187,0.0,0.0,38,0.00,,---,0.00,VWS V13.01,2013-11-17 11:32:00,
2013-11-17 06:37:00,45.5,21.4,29.88,South,187,0.0,0.0,38,0.00,,---,0.00,VWS V13.01,2013-11-17 11:37:00,
2013-11-17 06:42:00,45.9,21.7,29.88,South,187,0.0,0.0,38,0.00,,---,0.00,VWS V13.01,2013-11-17 11:42:00,
2013-11-17 06:47:00,46.0,21.9,29.85,South,187,0.0,0.0,38,0.00,,---,0.00,VWS V13.01,2013-11-17 11:47:00,
2013-11-17 06:52:00,46.2,22.0,29.85,South,187,0.0,0.0,38,0.00,,---,0.00,VWS V13.01,2013-11-17 11:52:00,
2013-11-17 06:57:00,46.4,21.6,29.85,South,187,0.0,0.0,37,0.00,,---,0.00,VWS V13.01,2013-11-17 11:57:00,
2013-11-17 07:02:00,46.6,21.7,29.85,South,187,0.0,0.0,37,0.00,,---,0.00,VWS V13.01,2013-11-17 12:02:00,
2013-11-17 07:07:00,46.6,21.7,29.85,South,187,0.0,0.0,37,0.00,,---,0.00,VWS V13.01,2013-11-17 12:07:00,
2013-11-17 07:12:00,47.1,22.8,29.85,South,187,0.0,0.0,38,0.00,,---,0.00,VWS V13.01,2013-11-17 12:12:00,
2013-11-17 07:17:00,47.5,23.2,29.85,South,187,0.0,0.0,38,0.00,,---,0.00,VWS V13.01,2013-11-17 12:17:00,
2013-11-17 07:22:00,48.0,23.6,29.85,ENE,58,0.0,0.0,38,0.00,,---,0.00,VWS V13.01,2013-11-17 12:22:00,
2013-11-17 07:28:00,48.6,24.1,29.85,ENE,59,0.0,0.0,38,0.00,,---,0.00,VWS V13.01,2013-11-17 12:28:00,
2013-11-17 07:33:00,49.1,24.6,29.85,ENE,62,0.0,0.0,38,0.00,,---,0.00,VWS V13.01,2013-11-17 12:33:00,
2013-11-17 07:38:00,49.1,24.6,29.85,ENE,62,0.0,0.0,38,0.00,,---,0.00,VWS V13.01,2013-11-17 12:38:00,
2013-11-17 07:43:00,49.3,25.4,29.85,ENE,62,0.0,0.0,39,0.00,,---,0.00,VWS V13.01,2013-11-17 12:43:00,
2013-11-17 07:48:00,49.3,25.4,29.85,ENE,62,0.0,0.0,39,0.00,,---,0.00,VWS V13.01,2013-11-17 12:48:00,
2013-11-17 07:53:00,49.8,25.9,29.85,ESE,108,0.0,0.0,39,0.00,,---,0.00,VWS V13.01,2013-11-17 12:53:00,
2013-11-17 07:58:00,50.2,26.2,29.85,ESE,103,0.0,0.0,39,0.00,,---,0.00,VWS V13.01,2013-11-17 12:58:00,
2013-11-17 08:03:00,50.4,26.4,29.85,ESE,103,0.0,0.0,39,0.00,,---,0.00,VWS V13.01,2013-11-17 13:03:00,
2013-11-17 08:08:00,50.7,26.7,29.85,NE,50,0.0,0.0,39,0.00,,---,0.00,VWS V13.01,2013-11-17 13:08:00,
2013-11-17 08:13:00,51.1,27.0,29.85,ENE,72,0.0,0.0,39,0.00,,---,0.00,VWS V13.01,2013-11-17 13:13:00,
2013-11-17 08:18:00,51.3,26.5,29.85,NE,34,0.0,0.0,38,0.00,,---,0.00,VWS V13.01,2013-11-17 13:18:00,
2013-11-17 08:23:00,51.3,26.5,29.85,NE,34,0.0,0.0,38,0.00,,---,0.00,VWS V13.01,2013-11-17 13:23:00,
2013-11-17 08:29:00,51.3,26.5,29.85,NE,34,0.0,0.0,38,0.00,,---,0.00,VWS V13.01,2013-11-17 13:29:00,
2013-11-17 08:34:00,51.3,26.5,29.85,ESE,103,0.0,0.0,38,0.00,,---,0.00,VWS V13.01,2013-11-17 13:34:00,
2013-11-17 08:39:00,51.3,26.5,29.85,NE,43,0.0,0.0,38,0.00,,---,0.00,VWS V13.01,2013-11-17 13:39:00,
2013-11-17 08:44:00,51.4,26.7,29.85,ENE,72,0.0,0.0,38,0.00,,---,0.00,VWS V13.01,2013-11-17 13:44:00,
2013-11-17 08:49:00,51.6,26.9,29.85,ENE,67,0.0,0.0,38,0.00,,---,0.00,VWS V13.01,2013-11-17 13:49:00,
2013-11-17 08:54:00,51.6,26.2,29.85,ENE,76,0.0,0.0,37,0.00,,---,0.00,VWS V13.01,2013-11-17 13:54:00,
2013-11-17 08:59:00,51.8,26.4,29.85,ESE,113,0.0,0.0,37,0.00,,---,0.00,VWS V13.01,2013-11-17 13:59:00,
2013-11-17 09:04:00,52.0,26.5,29.85,ENE,63,0.0,0.0,37,0.00,,---,0.00,VWS V13.01,2013-11-17 14:04:00,
2013-11-17 09:09:00,52.0,26.5,29.85,ENE,63,0.0,0.0,37,0.00,,---,0.00,VWS V13.01,2013-11-17 14:09:00,
2013-11-17 09:14:00,52.2,26.7,29.85,ENE,71,0.0,0.0,37,0.00,,---,0.00,VWS V13.01,2013-11-17 14:14:00,
2013-11-17 09:19:00,52.3,26.9,29.85,ENE,71,0.0,0.0,37,0.00,,---,0.00,VWS V13.01,2013-11-17 14:19:00,
2013-11-17 09:24:00,52.3,26.9,29.85,ENE,75,0.0,0.0,37,0.00,,---,0.00,VWS V13.01,2013-11-17 14:24:00,
2013-11-17 09:30:00,52.7,27.2,29.85,SE,128,0.0,0.0,37,0.00,,---,0.00,VWS V13.01,2013-11-17 14:30:00,
2013-11-17 09:35:00,52.7,27.2,29.85,NE,52,0.0,0.0,37,0.00,,---,0.00,VWS V13.01,2013-11-17 14:35:00,
2013-11-17 09:40:00,52.9,27.3,29.85,East,96,0.0,0.0,37,0.00,,---,0.00,VWS V13.01,2013-11-17 14:40:00,
2013-11-17 09:45:00,53.2,27.7,29.85,East,80,0.0,0.0,37,0.00,,---,0.00,VWS V13.01,2013-11-17 14:45:00,
2013-11-17 09:50:00,53.6,28.0,29.85,ENE,62,0.0,0.0,37,0.00,,---,0.00,VWS V13.01,2013-11-17 14:50:00,
2013-11-17 09:55:00,53.8,28.1,29.85,East,97,0.0,0.0,37,0.00,,---,0.00,VWS V13.01,2013-11-17 14:55:00,
2013-11-17 10:00:00,53.8,28.1,29.83,SE,126,0.0,0.0,37,0.00,,---,0.00,VWS V13.01,2013-11-17 15:00:00,
2013-11-17 10:05:00,54.3,28.0,29.83,North,0,0.0,0.0,36,0.00,,---,0.00,VWS V13.01,2013-11-17 15:05:00,
2013-11-17 10:10:00,54.3,28.0,29.83,NE,52,0.0,0.0,36,0.00,,---,0.00,VWS V13.01,2013-11-17 15:10:00,
2013-11-17 10:15:00,54.7,27.6,29.85,East,84,0.0,0.0,35,0.00,,---,0.00,VWS V13.01,2013-11-17 15:15:00,
2013-11-17 10:20:00,55.0,27.9,29.85,ENE,76,0.0,0.0,35,0.00,,---,0.00,VWS V13.01,2013-11-17 15:20:00,
2013-11-17 10:25:00,55.6,27.7,29.85,ENE,75,0.0,0.0,34,0.00,,---,0.00,VWS V13.01,2013-11-17 15:25:00,
2013-11-17 10:31:00,55.9,27.3,29.85,NNE,32,0.0,0.0,33,0.00,,---,0.00,VWS V13.01,2013-11-17 15:31:00,
2013-11-17 10:36:00,55.9,25.8,29.85,ENE,61,0.0,0.0,31,0.00,,---,0.00,VWS V13.01,2013-11-17 15:36:00,
2013-11-17 10:41:00,55.9,25.0,29.85,NE,34,0.0,0.0,30,0.00,,---,0.00,VWS V13.01,2013-11-17 15:41:00,
2013-11-17 10:46:00,56.1,25.1,29.83,NE,49,0.0,0.0,30,0.00,,---,0.00,VWS V13.01,2013-11-17 15:46:00,
2013-11-17 10:51:00,56.3,24.5,29.83,ENE,77,0.0,0.0,29,0.00,,---,0.00,VWS V13.01,2013-11-17 15:51:00,
2013-11-17 10:56:00,56.5,24.6,29.83,ENE,78,0.0,0.0,29,0.00,,---,0.00,VWS V13.01,2013-11-17 15:56:00,
2013-11-17 11:01:00,56.7,24.8,29.83,SE,134,0.0,0.0,29,0.00,,---,0.00,VWS V13.01,2013-11-17 16:01:00,
2013-11-17 11:06:00,56.7,24.8,29.83,ESE,123,0.0,0.0,29,0.00,,---,0.00,VWS V13.01,2013-11-17 16:06:00,
2013-11-17 11:11:00,56.8,24.9,29.83,ESE,123,0.0,0.0,29,0.00,,---,0.00,VWS V13.01,2013-11-17 16:11:00,
2013-11-17 11:16:00,57.2,25.2,29.80,SE,132,0.0,0.0,29,0.00,,---,0.00,VWS V13.01,2013-11-17 16:16:00,
2013-11-17 11:21:00,57.4,25.4,29.80,SE,127,0.0,0.0,29,0.00,,---,0.00,VWS V13.01,2013-11-17 16:21:00,
2013-11-17 11:26:00,57.4,24.6,29.80,SE,127,0.0,0.0,28,0.00,,---,0.00,VWS V13.01,2013-11-17 16:26:00,
2013-11-17 11:32:00,57.4,24.6,29.80,SSE,147,0.0,0.0,28,0.00,,---,0.00,VWS V13.01,2013-11-17 16:32:00,
2013-11-17 11:37:00,57.2,25.2,29.80,ESE,117,0.0,0.0,29,0.00,,---,0.00,VWS V13.01,2013-11-17 16:37:00,
2013-11-17 11:42:00,57.2,25.2,29.80,NE,43,0.0,0.0,29,0.00,,---,0.00,VWS V13.01,2013-11-17 16:42:00,
2013-11-17 11:47:00,57.2,26.1,29.80,ENE,59,0.0,0.0,30,0.00,,---,0.00,VWS V13.01,2013-11-17 16:47:00,
2013-11-17 11:52:00,57.2,26.1,29.80,NE,48,0.0,0.0,30,0.00,,---,0.00,VWS V13.01,2013-11-17 16:52:00,
2013-11-17 11:57:00,56.8,27.3,29.80,NE,48,0.0,0.0,32,0.00,,---,0.00,VWS V13.01,2013-11-17 16:57:00,
2013-11-17 12:02:00,56.7,28.6,29.80,ESE,122,0.0,0.0,34,0.00,,---,0.00,VWS V13.01,2013-11-17 17:02:00,
2013-11-17 12:07:00,56.3,29.0,29.80,ESE,122,0.0,0.0,35,0.00,,---,0.00,VWS V13.01,2013-11-17 17:07:00,
2013-11-17 12:13:00,56.3,29.0,29.80,ESE,122,0.0,0.0,35,0.00,,---,0.00,VWS V13.01,2013-11-17 17:13:00,
2013-11-17 12:18:00,56.5,29.2,29.80,SE,135,0.0,0.0,35,0.00,,---,0.00,VWS V13.01,2013-11-17 17:18:00,
2013-11-17 12:23:00,56.5,29.9,29.80,ENE,77,0.0,0.0,36,0.00,,---,0.00,VWS V13.01,2013-11-17 17:23:00,
2013-11-17 12:28:00,56.5,29.9,29.80,East,80,0.0,0.0,36,0.00,,---,0.00,VWS V13.01,2013-11-17 17:28:00,
2013-11-17 12:33:00,56.7,30.0,29.77,East,80,0.0,0.0,36,0.00,,---,0.00,VWS V13.01,2013-11-17 17:33:00,
2013-11-17 12:38:00,56.8,30.2,29.77,East,79,0.0,0.0,36,0.00,,---,0.00,VWS V13.01,2013-11-17 17:38:00,
2013-11-17 12:43:00,56.8,30.2,29.77,ENE,78,0.0,0.0,36,0.00,,---,0.00,VWS V13.01,2013-11-17 17:43:00,
2013-11-17 12:48:00,57.0,31.0,29.77,East,79,0.0,0.0,37,0.00,,---,0.00,VWS V13.01,2013-11-17 17:48:00,
2013-11-17 12:53:00,57.0,31.0,29.77,NE,55,0.0,0.0,37,0.00,,---,0.00,VWS V13.01,2013-11-17 17:53:00,
2013-11-17 12:58:00,57.0,31.0,29.77,NE,55,0.0,0.0,37,0.00,,---,0.00,VWS V13.01,2013-11-17 17:58:00,
2013-11-17 13:04:00,57.0,31.0,29.77,NE,55,0.0,0.0,37,0.00,,---,0.00,VWS V13.01,2013-11-17 18:04:00,
2013-11-17 13:09:00,57.0,31.0,29.77,NE,55,0.0,0.0,37,0.00,,---,0.00,VWS V13.01,2013-11-17 18:09:00,
2013-11-17 13:14:00,57.2,31.2,29.77,ENE,73,0.0,0.0,37,0.00,,---,0.00,VWS V13.01,2013-11-17 18:14:00,
2013-11-17 13:19:00,57.2,31.2,29.74,ENE,73,0.0,0.0,37,0.00,,---,0.00,VWS V13.01,2013-11-17 18:19:00,
2013-11-17 13:24:00,57.2,31.2,29.74,ENE,73,0.0,0.0,37,0.00,,---,0.00,VWS V13.01,2013-11-17 18:24:00,
2013-11-17 13:29:00,57.2,31.2,29.74,ENE,73,0.0,0.0,37,0.00,,---,0.00,VWS V13.01,2013-11-17 18:29:00,
2013-11-17 13:34:00,57.4,32.0,29.74,East,80,0.0,0.0,38,0.00,,---,0.00,VWS V13.01,2013-11-17 18:34:00,
2013-11-17 13:39:00,57.6,32.2,29.74,East,80,0.0,0.0,38,0.00,,---,0.00,VWS V13.01,2013-11-17 18:39:00,
2013-11-17 13:44:00,57.6,32.2,29.74,East,80,0.0,0.0,38,0.00,,---,0.00,VWS V13.01,2013-11-17 18:44:00,
2013-11-17 13:50:00,57.7,32.3,29.74,East,80,0.0,0.0,38,0.00,,---,0.00,VWS V13.01,2013-11-17 18:50:00,
2013-11-17 13:55:00,57.7,32.3,29.74,East,80,0.0,0.0,38,0.00,,---,0.00,VWS V13.01,2013-11-17 18:55:00,
2013-11-17 14:00:00,57.7,32.3,29.74,East,80,0.0,0.0,38,0.00,,---,0.00,VWS V13.01,2013-11-17 19:00:00,
2013-11-17 14:05:00,57.6,32.2,29.74,NE,56,0.0,0.0,38,0.00,,---,0.00,VWS V13.01,2013-11-17 19:05:00,
2013-11-17 14:10:00,57.6,32.2,29.74,NE,56,0.0,0.0,38,0.00,,---,0.00,VWS V13.01,2013-11-17 19:10:00,
2013-11-17 14:15:00,57.6,32.2,29.71,NE,56,0.0,0.0,38,0.00,,---,0.00,VWS V13.01,2013-11-17 19:15:00,
2013-11-17 14:20:00,57.6,32.8,29.71,ENE,60,0.0,0.0,39,0.00,,---,0.00,VWS V13.01,2013-11-17 19:20:00,
2013-11-17 14:25:00,57.6,32.8,29.71,ENE,60,0.0,0.0,39,0.00,,---,0.00,VWS V13.01,2013-11-17 19:25:00,
2013-11-17 14:31:00,57.7,33.0,29.74,ENE,60,0.0,0.0,39,0.00,,---,0.00,VWS V13.01,2013-11-17 19:31:00,
2013-11-17 14:36:00,57.6,32.8,29.74,ENE,60,0.0,0.0,39,0.00,,---,0.00,VWS V13.01,2013-11-17 19:36:00,
2013-11-17 14:41:00,57.6,32.8,29.74,ESE,121,0.0,0.0,39,0.00,,---,0.00,VWS V13.01,2013-11-17 19:41:00,
2013-11-17 14:46:00,57.7,33.0,29.71,ESE,121,0.0,0.0,39,0.00,,---,0.00,VWS V13.01,2013-11-17 19:46:00,
2013-11-17 14:51:00,57.7,33.0,29.71,ESE,121,0.0,0.0,39,0.00,,---,0.00,VWS V13.01,2013-11-17 19:51:00,
2013-11-17 14:56:00,57.7,33.0,29.71,ESE,121,0.0,0.0,39,0.00,,---,0.00,VWS V13.01,2013-11-17 19:56:00,
2013-11-17 15:01:00,57.7,33.0,29.71,ESE,121,0.0,0.0,39,0.00,,---,0.00,VWS V13.01,2013-11-17 20:01:00,
2013-11-17 15:07:00,57.7,33.6,29.71,ESE,121,0.0,0.0,40,0.00,,---,0.00,VWS V13.01,2013-11-17 20:07:00,
2013-11-17 15:12:00,57.7,33.6,29.71,NE,45,0.0,0.0,40,0.00,,---,0.00,VWS V13.01,2013-11-17 20:12:00,
2013-11-17 15:17:00,57.9,33.8,29.71,NE,45,0.0,0.0,40,0.00,,---,0.00,VWS V13.01,2013-11-17 20:17:00,
2013-11-17 15:22:00,57.9,33.8,29.71,NE,45,0.0,0.0,40,0.00,,---,0.00,VWS V13.01,2013-11-17 20:22:00,
2013-11-17 15:27:00,57.9,33.8,29.71,NE,45,0.0,0.0,40,0.00,,---,0.00,VWS V13.01,2013-11-17 20:27:00,
2013-11-17 15:32:00,57.9,33.8,29.71,NE,38,0.0,0.0,40,0.00,,---,0.00,VWS V13.01,2013-11-17 20:32:00,
2013-11-17 15:37:00,57.9,33.8,29.71,NE,38,0.0,0.0,40,0.00,,---,0.00,VWS V13.01,2013-11-17 20:37:00,
2013-11-17 15:42:00,57.9,33.8,29.71,NNE,19,0.0,0.0,40,0.00,,---,0.00,VWS V13.01,2013-11-17 20:42:00,
2013-11-17 15:47:00,57.9,33.8,29.68,NNE,19,0.0,0.0,40,0.00,,---,0.00,VWS V13.01,2013-11-17 20:47:00,
2013-11-17 15:53:00,57.9,34.4,29.68,NNE,19,0.0,0.0,41,0.00,,---,0.00,VWS V13.01,2013-11-17 20:53:00,
2013-11-17 15:58:00,58.1,34.5,29.68,NNE,19,0.0,0.0,41,0.00,,---,0.00,VWS V13.01,2013-11-17 20:58:00,
2013-11-17 16:03:00,57.9,34.4,29.68,NNE,19,0.0,0.0,41,0.00,,---,0.00,VWS V13.01,2013-11-17 21:03:00,
2013-11-17 16:08:00,58.1,34.5,29.68,NNE,19,0.0,0.0,41,0.00,,---,0.00,VWS V13.01,2013-11-17 21:08:00,
2013-11-17 16:13:00,57.9,34.4,29.68,NNE,19,0.0,0.0,41,0.00,,---,0.00,VWS V13.01,2013-11-17 21:13:00,
2013-11-17 16:18:00,57.9,34.4,29.68,NNE,19,0.0,0.0,41,0.00,,---,0.00,VWS V13.01,2013-11-17 21:18:00,
2013-11-17 16:23:00,58.1,35.2,29.68,NNE,19,0.0,0.0,42,0.00,,---,0.00,VWS V13.01,2013-11-17 21:23:00,
2013-11-17 16:29:00,58.1,35.7,29.68,NNE,19,0.0,0.0,43,0.00,,---,0.00,VWS V13.01,2013-11-17 21:29:00,
2013-11-17 16:34:00,58.1,35.2,29.68,NNE,19,0.0,0.0,42,0.00,,---,0.00,VWS V13.01,2013-11-17 21:34:00,
2013-11-17 16:39:00,58.1,35.2,29.68,NNE,19,0.0,0.0,42,0.00,,---,0.00,VWS V13.01,2013-11-17 21:39:00,
2013-11-17 16:44:00,57.9,35.0,29.68,NNE,19,0.0,0.0,42,0.00,,---,0.00,VWS V13.01,2013-11-17 21:44:00,
2013-11-17 16:49:00,57.9,35.6,29.68,NNE,19,0.0,0.0,43,0.00,,---,0.00,VWS V13.01,2013-11-17 21:49:00,
2013-11-17 16:54:00,57.9,35.6,29.68,NNE,19,0.0,0.0,43,0.00,,---,0.00,VWS V13.01,2013-11-17 21:54:00,
2013-11-17 16:59:00,57.9,35.6,29.68,NNE,19,0.0,0.0,43,0.00,,---,0.00,VWS V13.01,2013-11-17 21:59:00,
2013-11-17 17:05:00,58.1,36.3,29.68,NNE,19,0.0,0.0,44,0.00,,---,0.00,VWS V13.01,2013-11-17 22:05:00,
2013-11-17 17:10:00,58.1,36.3,29.68,NNE,19,0.0,0.0,44,0.00,,---,0.00,VWS V13.01,2013-11-17 22:10:00,
2013-11-17 17:15:00,58.1,36.3,29.65,NNE,19,0.0,0.0,44,0.00,,---,0.00,VWS V13.01,2013-11-17 22:15:00,
2013-11-17 17:20:00,58.1,36.3,29.65,NNE,19,0.0,0.0,44,0.00,,---,0.00,VWS V13.01,2013-11-17 22:20:00,
2013-11-17 17:25:00,58.1,36.9,29.65,NNE,19,0.0,0.0,45,0.00,,---,0.00,VWS V13.01,2013-11-17 22:25:00,
2013-11-17 17:30:00,58.1,36.9,29.65,NNE,23,0.0,0.0,45,0.00,,---,0.00,VWS V13.01,2013-11-17 22:30:00,
2013-11-17 17:35:00,58.3,37.0,29.65,East,101,0.0,0.0,45,0.00,,---,0.00,VWS V13.01,2013-11-17 22:35:00,
2013-11-17 17:40:00,58.1,36.9,29.65,East,101,0.0,0.0,45,0.00,,---,0.00,VWS V13.01,2013-11-17 22:40:00,
2013-11-17 17:46:00,58.1,36.9,29.65,East,101,0.0,0.0,45,0.00,,---,0.00,VWS V13.01,2013-11-17 22:46:00,
2013-11-17 17:51:00,58.1,36.9,29.65,East,101,0.0,0.0,45,0.00,,---,0.00,VWS V13.01,2013-11-17 22:51:00,
2013-11-17 17:56:00,58.1,36.9,29.65,East,101,0.0,0.0,45,0.00,,---,0.00,VWS V13.01,2013-11-17 22:56:00,
2013-11-17 18:01:00,58.1,37.5,29.65,SSE,147,0.0,0.0,46,0.00,,---,0.00,VWS V13.01,2013-11-17 23:01:00,
2013-11-17 18:06:00,58.3,37.6,29.65,ESE,114,0.0,0.0,46,0.00,,---,0.00,VWS V13.01,2013-11-17 23:06:00,
2013-11-17 18:11:00,58.3,37.6,29.65,SSE,168,0.0,0.0,46,0.00,,---,0.00,VWS V13.01,2013-11-17 23:11:00,
2013-11-17 18:17:00,58.3,38.2,29.62,ESE,109,0.0,0.0,47,0.00,,---,0.00,VWS V13.01,2013-11-17 23:17:00,
2013-11-17 18:22:00,58.5,38.3,29.62,ESE,114,0.0,0.0,47,0.00,,---,0.00,VWS V13.01,2013-11-17 23:22:00,
2013-11-17 18:27:00,58.5,38.3,29.62,SSE,153,0.0,0.0,47,0.00,,---,0.00,VWS V13.01,2013-11-17 23:27:00,
2013-11-17 18:32:00,58.5,38.3,29.62,East,82,0.0,0.0,47,0.00,,---,0.00,VWS V13.01,2013-11-17 23:32:00,
2013-11-17 18:37:00,58.3,38.7,29.62,SE,129,0.0,0.0,48,0.00,,---,0.00,VWS V13.01,2013-11-17 23:37:00,
2013-11-17 18:42:00,58.5,38.9,29.62,ESE,118,0.0,0.0,48,0.00,,---,0.00,VWS V13.01,2013-11-17 23:42:00,
2013-11-17 18:47:00,58.5,39.4,29.62,ESE,117,0.0,0.0,49,0.00,,---,0.00,VWS V13.01,2013-11-17 23:47:00,
2013-11-17 18:53:00,58.5,39.4,29.62,East,93,0.0,0.0,49,0.00,,---,0.00,VWS V13.01,2013-11-17 23:53:00,
2013-11-17 18:58:00,58.5,39.4,29.62,East,92,0.0,0.0,49,0.00,,---,0.00,VWS V13.01,2013-11-17 23:58:00,
2013-11-17 19:03:00,58.5,39.4,29.62,WSW,238,0.0,0.0,49,0.00,,---,0.00,VWS V13.01,2013-11-18 00:03:00,
2013-11-17 19:08:00,58.6,39.5,29.62,South,173,0.0,0.0,49,0.00,,---,0.00,VWS V13.01,2013-11-18 00:08:00,
2013-11-17 19:13:00,58.6,39.5,29.62,South,173,0.0,0.0,49,0.00,,---,0.00,VWS V13.01,2013-11-18 00:13:00,
2013-11-17 19:18:00,58.5,39.4,29.62,ESE,120,0.0,0.0,49,0.00,,---,0.00,VWS V13.01,2013-11-18 00:18:00,
2013-11-17 19:24:00,58.5,39.9,29.62,WNW,302,0.0,0.0,50,0.00,,---,0.00,VWS V13.01,2013-11-18 00:24:00,
2013-11-17 19:29:00,58.6,40.1,29.62,SE,146,0.0,0.0,50,0.00,,---,0.00,VWS V13.01,2013-11-18 00:29:00,
2013-11-17 19:34:00,58.5,39.9,29.62,WSW,254,0.0,0.0,50,0.00,,---,0.00,VWS V13.01,2013-11-18 00:34:00,
2013-11-17 19:39:00,58.6,40.1,29.62,SE,139,0.0,0.0,50,0.00,,---,0.00,VWS V13.01,2013-11-18 00:39:00,
2013-11-17 19:44:00,58.6,40.1,29.62,WSW,243,0.0,0.0,50,0.00,,---,0.00,VWS V13.01,2013-11-18 00:44:00,
2013-11-17 19:49:00,58.5,39.9,29.62,WSW,242,0.0,0.0,50,0.00,,---,0.00,VWS V13.01,2013-11-18 00:49:00,
2013-11-17 19:54:00,58.5,39.9,29.62,WSW,257,0.0,0.0,50,0.00,,---,0.00,VWS V13.01,2013-11-18 00:54:00,
2013-11-17 19:59:00,58.5,40.4,29.62,WSW,257,0.0,0.0,51,0.00,,---,0.00,VWS V13.01,2013-11-18 00:59:00,
2013-11-17 20:05:00,58.5,40.4,29.62,South,190,0.0,0.0,51,0.00,,---,0.00,VWS V13.01,2013-11-18 01:05:00,
2013-11-17 20:10:00,58.5,40.4,29.62,North,349,0.0,0.0,51,0.00,,---,0.00,VWS V13.01,2013-11-18 01:10:00,
2013-11-17 20:15:00,58.5,40.4,29.59,South,169,0.0,0.0,51,0.00,,---,0.00,VWS V13.01,2013-11-18 01:15:00,
2013-11-17 20:20:00,58.5,40.4,29.59,SSE,150,0.0,0.0,51,0.00,,---,0.00,VWS V13.01,2013-11-18 01:20:00,
2013-11-17 20:25:00,58.5,40.4,29.59,SSE,162,0.0,0.0,51,0.00,,---,0.00,VWS V13.01,2013-11-18 01:25:00,
2013-11-17 20:30:00,58.5,40.4,29.59,SSE,163,0.0,0.0,51,0.00,,---,0.00,VWS V13.01,2013-11-18 01:30:00,
2013-11-17 20:35:00,58.5,40.4,29.59,SSE,148,0.0,0.0,51,0.00,,---,0.00,VWS V13.01,2013-11-18 01:35:00,
2013-11-17 20:40:00,58.3,40.2,29.59,West,264,0.0,0.0,51,0.00,,---,0.00,VWS V13.01,2013-11-18 01:40:00,
2013-11-17 20:45:00,58.3,40.8,29.59,South,175,0.0,0.0,52,0.00,,---,0.00,VWS V13.01,2013-11-18 01:45:00,
2013-11-17 20:51:00,58.3,40.8,29.59,SSE,157,0.0,0.0,52,0.00,,---,0.00,VWS V13.01,2013-11-18 01:51:00,
2013-11-17 20:56:00,58.3,40.8,29.59,SSE,157,0.0,0.0,52,0.00,,---,0.00,VWS V13.01,2013-11-18 01:56:00,
2013-11-17 21:01:00,58.1,40.6,29.56,SSE,157,0.0,0.0,52,0.00,,---,0.00,VWS V13.01,2013-11-18 02:01:00,
2013-11-17 21:06:00,58.1,40.6,29.56,SSE,157,0.0,0.0,52,0.00,,---,0.00,VWS V13.01,2013-11-18 02:06:00,
2013-11-17 21:11:00,58.1,40.6,29.56,South,186,0.0,0.0,52,0.00,,---,0.00,VWS V13.01,2013-11-18 02:11:00,
2013-11-17 21:16:00,57.9,40.4,29.56,South,175,0.0,0.0,52,0.00,,---,0.00,VWS V13.01,2013-11-18 02:16:00,
2013-11-17 21:22:00,57.9,40.4,29.56,South,175,0.0,0.0,52,0.00,,---,0.00,VWS V13.01,2013-11-18 02:22:00,
2013-11-17 21:27:00,57.9,40.4,29.56,ESE,114,0.0,0.0,52,0.00,,---,0.00,VWS V13.01,2013-11-18 02:27:00,
2013-11-17 21:32:00,57.9,40.4,29.56,SE,129,0.0,0.0,52,0.00,,---,0.00,VWS V13.01,2013-11-18 02:32:00,
2013-11-17 21:37:00,57.9,40.4,29.56,SSE,154,0.0,0.0,52,0.00,,---,0.00,VWS V13.01,2013-11-18 02:37:00,
2013-11-17 21:42:00,57.9,40.4,29.56,SSW,199,0.0,0.0,52,0.00,,---,0.00,VWS V13.01,2013-11-18 02:42:00,
2013-11-17 21:47:00,57.9,40.4,29.53,SE,143,0.0,0.0,52,0.00,,---,0.00,VWS V13.01,2013-11-18 02:47:00,
2013-11-17 21:53:00,57.7,40.2,29.53,SE,145,0.0,0.0,52,0.00,,---,0.00,VWS V13.01,2013-11-18 02:53:00,
2013-11-17 21:58:00,57.7,40.2,29.53,WSW,249,0.0,0.0,52,0.00,,---,0.00,VWS V13.01,2013-11-18 02:58:00,
2013-11-17 22:03:00,57.7,40.2,29.53,WSW,248,0.0,0.0,52,0.00,,---,0.00,VWS V13.01,2013-11-18 03:03:00,
2013-11-17 22:08:00,57.6,40.6,29.53,ESE,111,0.0,0.0,53,0.00,,---,0.00,VWS V13.01,2013-11-18 03:08:00,
2013-11-17 22:13:00,57.6,40.6,29.53,East,85,0.0,0.0,53,0.00,,---,0.00,VWS V13.01,2013-11-18 03:13:00,
2013-11-17 22:18:00,57.4,39.9,29.53,SSE,150,0.0,0.0,52,0.00,,---,0.00,VWS V13.01,2013-11-18 03:18:00,
2013-11-17 22:23:00,57.4,40.4,29.53,West,279,0.0,0.0,53,0.00,,---,0.00,VWS V13.01,2013-11-18 03:23:00,
2013-11-17 22:29:00,57.4,40.4,29.53,ESE,109,0.0,0.0,53,0.00,,---,0.00,VWS V13.01,2013-11-18 03:29:00,
2013-11-17 22:34:00,57.4,40.4,29.50,ESE,121,0.0,0.0,53,0.00,,---,0.00,VWS V13.01,2013-11-18 03:34:00,
2013-11-17 22:39:00,57.4,40.4,29.50,SSE,154,0.0,0.0,53,0.00,,---,0.00,VWS V13.01,2013-11-18 03:39:00,
2013-11-17 22:44:00,57.4,40.4,29.50,North,353,0.0,0.0,53,0.00,,---,0.00,VWS V13.01,2013-11-18 03:44:00,
2013-11-17 22:49:00,57.4,40.4,29.50,NNE,12,0.0,0.0,53,0.00,,---,0.00,VWS V13.01,2013-11-18 03:49:00,
2013-11-17 22:54:00,57.4,40.4,29.50,NW,313,0.0,0.0,53,0.00,,---,0.00,VWS V13.01,2013-11-18 03:54:00,
2013-11-17 22:59:00,57.4,40.4,29.50,NW,311,0.0,0.0,53,0.00,,---,0.00,VWS V13.01,2013-11-18 03:59:00,
2013-11-17 23:04:00,57.4,40.4,29.50,NW,308,0.0,0.0,53,0.00,,---,0.00,VWS V13.01,2013-11-18 04:04:00,
2013-11-17 23:10:00,57.4,40.4,29.50,South,171,0.0,0.0,53,0.00,,---,0.00,VWS V13.01,2013-11-18 04:10:00,
2013-11-17 23:15:00,57.4,40.4,29.50,South,171,0.0,0.0,53,0.00,,---,0.00,VWS V13.01,2013-11-18 04:15:00,
2013-11-17 23:20:00,57.2,40.7,29.50,SSE,168,0.0,0.0,54,0.00,,---,0.00,VWS V13.01,2013-11-18 04:20:00,
2013-11-17 23:25:00,57.2,40.7,29.50,SSW,203,0.0,0.0,54,0.00,,---,0.00,VWS V13.01,2013-11-18 04:25:00,
2013-11-17 23:30:00,57.2,40.7,29.47,NNE,29,0.0,0.0,54,0.00,,---,0.00,VWS V13.01,2013-11-18 04:30:00,
2013-11-17 23:35:00,57.2,40.7,29.47,ESE,111,0.0,0.0,54,0.00,,---,0.00,VWS V13.01,2013-11-18 04:35:00,
2013-11-17 23:40:00,57.2,40.7,29.47,ENE,77,0.0,0.0,54,0.00,,---,0.00,VWS V13.01,2013-11-18 04:40:00,
2013-11-17 23:45:00,57.2,40.7,29.47,SSE,148,0.0,0.0,54,0.00,,---,0.00,VWS V13.01,2013-11-18 04:45:00,
2013-11-17 23:51:00,57.4,40.9,29.47,SSE,162,0.0,0.0,54,0.00,,---,0.00,VWS V13.01,2013-11-18 04:51:00,
2013-11-17 23:56:00,57.4,40.9,29.47,SSE,164,0.0,0.0,54,0.00,,---,0.00,VWS V13.01,2013-11-18 04:56:00,